AD0YN Weather Reports


Display with metric or nautical units.
time (UTC)temp
F
wind
direction
speed
MPH
gust
MPH
rain 1hr
in
rain 24hr
in
rain mn
in
humidity
%
barometer
mb
20260906162049 89 144 3.0 4.0 0.00 0.00 0.00 67 1016.6
20260906161544 89 128 7.0 9.0 0.00 0.00 0.00 66 1016.2
20260906161042 88 115 4.0 6.0 0.00 0.00 0.00 68 1016.3
20260906160541 88 76 5.0 7.0 0.00 0.00 0.00 69 1016.4
20260906160040 88 97 5.0 8.0 0.00 0.00 0.00 69 1016.2
20260906155538 87 143 3.0 3.0 0.00 0.00 0.00 70 1016.4
20260906155034 87 133 4.0 4.0 0.00 0.00 0.00 69 1016.5
20260906154530 87 84 4.0 4.0 0.00 0.00 0.00 71 1016.4
20260906154028 87 128 3.0 3.0 0.00 0.00 0.00 71 1016.6
20260906153527 87 124 4.0 4.0 0.00 0.00 0.00 71 1016.5
20260906153023 86 123 8.0 10.0 0.00 0.00 0.00 71 1016.5
20260906152522 86 115 4.0 4.0 0.00 0.00 0.00 73 1016.3
20260906152022 86 135 4.0 6.0 0.00 0.00 0.00 72 1016.4
20260906151517 86 106 4.0 4.0 0.00 0.00 0.00 73 1016.6
20260906151013 85 123 1.0 2.0 0.00 0.00 0.00 74 1016.4
20260906150508 85 108 4.0 6.0 0.00 0.00 0.00 75 1016.4
20260906150008 85 133 1.0 2.0 0.00 0.00 0.00 75 1016.4
20260906145502 86 69 3.0 3.0 0.00 0.00 0.00 74 1016.3
20260906145001 85 89 4.0 4.0 0.00 0.00 0.00 74 1016.2
20260906144456 84 135 2.0 2.0 0.00 0.00 0.00 78 1016.6
20260906143952 83 117 3.0 4.0 0.00 0.00 0.00 78 1016.4
20260906143447 83 35 4.0 4.0 0.00 0.00 0.00 79 1016.4
20260906142943 82 66 5.0 7.0 0.00 0.00 0.00 80 1016.2
20260906142443 82 131 4.0 4.0 0.00 0.00 0.00 80 1016.5
20260906141938 82 75 2.0 4.0 0.00 0.00 0.00 81 1016.4
20260906141438 81 120 2.0 3.0 0.00 0.00 0.00 83 1016.5
20260906140938 81 121 8.0 9.0 0.00 0.00 0.00 81 1016.6
20260906140432 81 123 4.0 7.0 0.00 0.00 0.00 82 1016.2
20260906135931 81 163 2.0 2.0 0.00 0.00 0.00 83 1016.1
20260906135429 81 125 5.0 6.0 0.00 0.00 0.00 83 1016.3
20260906134926 80 126 4.0 6.0 0.00 0.00 0.00 84 1016.3
20260906134420 81 117 3.0 3.0 0.00 0.00 0.00 84 1016.4
20260906133915 80 56 4.0 4.0 0.00 0.00 0.00 85 1016.3
20260906133411 80 119 1.0 2.0 0.00 0.00 0.00 86 1016.3
20260906132906 80 99 2.0 3.0 0.00 0.00 0.00 86 1016.5
20260906132402 79 134 2.0 2.0 0.00 0.00 0.00 88 1016.3
20260906131857 79 123 2.0 2.0 0.00 0.00 0.00 88 1016.2
20260906131353 79 85 4.0 4.0 0.00 0.00 0.00 88 1016.1
20260906130848 79 126 2.0 2.0 0.00 0.00 0.00 89 1016.1
20260906130348 78 94 1.0 2.0 0.00 0.00 0.00 89 1016.1
20260906125847 78 125 1.0 2.0 0.00 0.00 0.00 90 1016.2
20260906125344 78 132 1.0 2.0 0.00 0.00 0.00 91 1015.9
20260906124839 77 141 1.0 1.0 0.00 0.00 0.00 92 1016.1
20260906124335 77 85 2.0 2.0 0.00 0.00 0.00 93 1016.1
20260906123834 77 122 0.0 1.0 0.00 0.00 0.00 94 1015.8
20260906123329 77 130 2.0 3.0 0.00 0.00 0.00 94 1015.8
20260906122829 76 150 1.0 2.0 0.00 0.00 0.00 94 1015.8
20260906122324 76 135 1.0 2.0 0.00 0.00 0.00 95 1015.9
20260906121821 76 140 2.0 2.0 0.00 0.00 0.00 95 1015.5
20260906121316 76 97 1.0 2.0 0.00 0.00 0.00 95 1015.5
20260906120813 76 130 1.0 1.0 0.00 0.00 0.00 95 1015.6
20260906120308 76 144 3.0 3.0 0.00 0.00 0.00 95 1015.5
20260906115804 76 93 1.0 2.0 0.00 0.00 0.00 95 1015.5
20260906115259 76 131 0.0 1.0 0.00 0.00 0.00 94 1015.4
20260906114759 76 104 2.0 3.0 0.00 0.00 0.00 94 1015.3
20260906114254 76 67 3.0 3.0 0.00 0.00 0.00 94 1015.2
20260906113749 76 122 2.0 2.0 0.00 0.00 0.00 94 1015.2
20260906113249 76 133 4.0 6.0 0.00 0.00 0.00 94 1015.1
20260906112748 76 117 3.0 3.0 0.00 0.00 0.00 94 1015.3
20260906112245 76 90 2.0 2.0 0.00 0.00 0.00 94 1015.1
20260906111744 76 112 1.0 1.0 0.00 0.00 0.00 94 1015.1
20260906111239 76 80 2.0 2.0 0.00 0.00 0.00 94 1015.1
20260906110734 76 135 0.0 1.0 0.00 0.00 0.00 94 1015.0
20260906110230 76 104 2.0 2.0 0.00 0.00 0.00 94 1015.1
20260906105728 76 136 1.0 2.0 0.00 0.00 0.00 94 1015.1
20260906105225 76 125 1.0 1.0 0.00 0.00 0.00 93 1015.0
20260906104725 76 131 3.0 4.0 0.00 0.00 0.00 93 1015.0
20260906104224 76 134 1.0 1.0 0.00 0.00 0.00 93 1015.1
20260906103721 76 99 2.0 3.0 0.00 0.00 0.00 93 1015.4
20260906103216 76 138 0.0 1.0 0.00 0.00 0.00 93 1015.1
20260906102712 76 125 1.0 1.0 0.00 0.00 0.00 93 1015.1
20260906102212 76 131 0.0 1.0 0.00 0.00 0.00 92 1015.0
20260906101712 76 109 0.0 1.0 0.00 0.00 0.00 92 1015.0
20260906101207 76 131 0.0 1.0 0.00 0.00 0.00 92 1014.7
20260906100703 76 130 0.0 1.0 0.00 0.00 0.00 92 1014.6
20260906100202 76 106 1.0 2.0 0.00 0.00 0.00 92 1015.0
20260906095657 76 127 0.0 0.0 0.00 0.00 0.00 92 1014.9
20260906095152 76 126 0.0 0.0 0.00 0.00 0.00 91 1014.9
20260906094651 76 134 0.0 0.0 0.00 0.00 0.00 91 1014.7
20260906094147 76 134 0.0 0.0 0.00 0.00 0.00 91 1014.9
20260906093643 76 130 0.0 0.0 0.00 0.00 0.00 90 1014.5
20260906093138 77 135 0.0 0.0 0.00 0.00 0.00 90 1014.6
20260906092633 77 134 0.0 0.0 0.00 0.00 0.00 89 1014.3
20260906092132 77 126 0.0 1.0 0.00 0.00 0.00 89 1014.5
20260906091630 77 129 0.0 1.0 0.00 0.00 0.00 89 1014.4
20260906091126 77 89 2.0 2.0 0.00 0.00 0.00 89 1014.3
20260906090621 77 129 1.0 1.0 0.00 0.00 0.00 88 1014.4
20260906090120 77 87 1.0 2.0 0.00 0.00 0.00 88 1014.3
20260906085619 77 125 0.0 0.0 0.00 0.00 0.00 88 1014.2
20260906085114 77 129 2.0 2.0 0.00 0.00 0.00 87 1014.4
20260906084608 78 84 1.0 1.0 0.00 0.00 0.00 87 1014.1
20260906084107 78 113 2.0 2.0 0.00 0.00 0.00 87 1014.2
20260906083603 78 109 1.0 2.0 0.00 0.00 0.00 86 1014.0
20260906083103 78 86 2.0 3.0 0.00 0.00 0.00 86 1014.2
20260906082558 78 121 1.0 2.0 0.00 0.00 0.00 86 1014.0
20260906082054 78 140 0.0 1.0 0.00 0.00 0.00 86 1014.1
20260906081549 78 117 2.0 2.0 0.00 0.00 0.00 86 1013.9
20260906081045 78 133 1.0 1.0 0.00 0.00 0.00 86 1013.9
20260906080542 78 93 2.0 2.0 0.00 0.00 0.00 86 1014.1
20260906080038 78 110 3.0 3.0 0.00 0.00 0.00 86 1013.8
20260906075537 77 143 0.0 0.0 0.00 0.00 0.00 86 1013.9
20260906075032 78 123 1.0 1.0 0.00 0.00 0.00 85 1014.0
20260906074527 77 119 0.0 1.0 0.00 0.00 0.00 86 1013.9
20260906074025 77 130 1.0 1.0 0.00 0.00 0.00 86 1013.7
20260906073520 77 140 0.0 1.0 0.00 0.00 0.00 85 1013.8
20260906073016 77 125 1.0 2.0 0.00 0.00 0.00 86 1014.0
20260906072511 77 121 0.0 0.0 0.00 0.00 0.00 85 1013.9
20260906072008 77 124 0.0 0.0 0.00 0.00 0.00 85 1013.9
20260906071503 77 128 0.0 0.0 0.00 0.00 0.00 85 1014.0
20260906070958 77 127 0.0 0.0 0.00 0.00 0.00 85 1014.2
20260906070454 77 105 0.0 1.0 0.00 0.00 0.00 86 1014.1
20260906065950 77 133 0.0 0.0 0.00 0.00 0.00 86 1014.3
20260906065449 76 134 0.0 0.0 0.00 0.00 0.00 86 1014.4
20260906064945 76 136 0.0 0.0 0.00 0.00 0.00 85 1014.4
20260906064442 77 135 0.0 0.0 0.00 0.00 0.00 84 1014.6
20260906063942 77 135 0.0 0.0 0.00 0.00 0.00 83 1014.5
20260906063438 77 136 0.0 0.0 0.00 0.00 0.00 83 1014.6
20260906062937 77 135 0.0 0.0 0.00 0.00 0.00 83 1014.5
20260906062433 77 135 0.0 0.0 0.00 0.00 0.00 83 1014.4
20260906061927 77 144 0.0 0.0 0.00 0.00 0.00 83 1014.5
20260906061423 77 144 0.0 0.0 0.00 0.00 0.00 82 1014.4
20260906060918 77 144 0.0 0.0 0.00 0.00 0.00 82 1014.5
20260906060415 78 144 0.0 0.0 0.00 0.00 0.00 81 1014.6
20260906055911 78 144 0.0 0.0 0.00 0.00 0.00 81 1014.4
20260906055407 78 144 0.0 0.0 0.00 0.00 0.00 80 1014.5
20260906054902 78 144 0.0 0.0 0.00 0.00 0.00 80 1014.5
20260906054356 78 144 0.0 0.0 0.00 0.00 0.00 79 1014.5
20260906053853 78 144 0.0 0.0 0.00 0.00 0.00 79 1014.5
20260906053348 78 144 0.0 0.0 0.00 0.00 0.00 79 1014.5
20260906052844 78 144 0.0 0.0 0.00 0.00 0.00 79 1014.6
20260906052340 78 144 0.0 0.0 0.00 0.00 0.00 78 1014.4
20260906051837 79 144 0.0 0.0 0.00 0.00 0.00 78 1014.6
20260906051336 79 144 0.0 0.0 0.00 0.00 0.00 77 1014.4
20260906050832 80 144 0.0 0.0 0.00 0.00 0.00 76 1014.6
20260906050327 80 144 0.0 0.0 0.00 0.00 0.00 74 1014.3
20260906045826 81 144 0.0 0.0 0.00 0.00 0.00 72 1014.3
20260906045320 81 123 0.0 1.0 0.00 0.00 0.00 72 1014.3
20260906044817 81 142 0.0 0.0 0.00 0.00 0.00 72 1014.2
20260906044317 81 135 1.0 2.0 0.00 0.00 0.00 72 1014.4
20260906043812 81 148 1.0 1.0 0.00 0.00 0.00 73 1014.2
20260906043309 80 128 0.0 1.0 0.00 0.00 0.00 73 1014.2
20260906042808 80 128 0.0 0.0 0.00 0.00 0.00 73 1014.0
20260906042308 80 129 0.0 0.0 0.00 0.00 0.00 74 1014.1
20260906041803 80 129 0.0 0.0 0.00 0.00 0.00 74 1014.1
20260906041258 80 129 0.0 0.0 0.00 0.00 0.00 74 1013.9
20260906040754 80 129 0.0 0.0 0.00 0.00 0.00 75 1014.2
20260906040249 79 129 0.0 0.0 0.00 0.00 0.00 75 1014.1
20260906035744 79 129 0.0 0.0 0.00 0.00 0.00 76 1014.0
20260906035240 79 129 0.0 0.0 0.00 0.00 0.00 77 1013.9
20260906034739 78 129 0.0 0.0 0.00 0.00 0.00 77 1014.0
20260906034234 79 129 0.0 0.0 0.00 0.00 0.00 77 1014.0
20260906033730 79 129 0.0 0.0 0.00 0.00 0.00 76 1013.8
20260906033230 80 129 0.0 0.0 0.00 0.00 0.00 75 1013.9
20260906032727 80 129 0.0 0.0 0.00 0.00 0.00 74 1013.7
20260906032226 81 129 0.0 0.0 0.00 0.00 0.00 73 1013.7
20260906031722 81 129 0.0 0.0 0.00 0.00 0.00 72 1013.5
20260906031217 82 129 0.0 0.0 0.00 0.00 0.00 71 1013.4
20260906030717 82 129 0.0 0.0 0.00 0.00 0.00 70 1013.3
20260906030212 83 129 0.0 0.0 0.00 0.00 0.00 68 1013.3
20260906025711 83 129 0.0 0.0 0.00 0.00 0.00 67 1013.4
20260906025206 84 129 0.0 0.0 0.00 0.00 0.00 67 1013.2
20260906024705 84 129 0.0 0.0 0.00 0.00 0.00 67 1013.3
20260906024205 84 129 0.0 0.0 0.00 0.00 0.00 66 1013.2
20260906023701 84 129 0.0 0.0 0.00 0.00 0.00 66 1013.3
20260906023201 84 129 0.0 0.0 0.00 0.00 0.00 65 1013.1
20260906022655 85 129 0.0 0.0 0.00 0.00 0.00 65 1013.1
20260906022151 85 129 0.0 0.0 0.00 0.00 0.00 65 1013.0
20260906021648 84 129 1.0 1.0 0.00 0.00 0.00 65 1012.8
20260906021146 84 129 0.0 1.0 0.00 0.00 0.00 66 1012.8
20260906020641 84 129 0.0 0.0 0.00 0.00 0.00 66 1012.7
20260906020136 85 129 0.0 0.0 0.00 0.00 0.00 65 1012.7
20260906015636 85 129 0.0 0.0 0.00 0.00 0.00 65 1012.8
20260906015135 85 130 0.0 0.0 0.00 0.00 0.00 65 1012.6
20260906014635 85 130 0.0 0.0 0.00 0.00 0.00 65 1012.6
20260906014131 85 130 1.0 1.0 0.00 0.00 0.00 65 1012.6
20260906013626 85 130 0.0 0.0 0.00 0.00 0.00 66 1012.6
20260906013121 85 130 0.0 0.0 0.00 0.00 0.00 66 1012.4
20260906012616 85 130 0.0 0.0 0.00 0.00 0.00 66 1012.6
20260906012116 85 130 0.0 0.0 0.00 0.00 0.00 66 1012.5
20260906011613 84 130 0.0 0.0 0.00 0.00 0.00 66 1012.4
20260906011113 84 130 0.0 0.0 0.00 0.00 0.00 67 1012.3
20260906010608 85 130 0.0 0.0 0.00 0.00 0.00 66 1012.6
20260906010104 86 130 0.0 0.0 0.00 0.00 0.00 64 1012.2
20260906005603 86 130 0.0 0.0 0.00 0.00 0.00 63 1012.2
20260906005103 86 130 0.0 0.0 0.00 0.00 0.00 64 1012.3
20260906004602 87 130 0.0 0.0 0.00 0.00 0.00 61 1012.2
20260906004057 88 129 0.0 1.0 0.00 0.00 0.00 57 1012.2
20260906003552 90 143 0.0 0.0 0.00 0.00 0.00 56 1012.1
20260906003049 91 143 0.0 0.0 0.00 0.00 0.00 54 1012.0
20260906002548 92 143 0.0 0.0 0.00 0.00 0.00 51 1012.0
20260906002043 94 143 0.0 0.0 0.00 0.00 0.00 49 1012.0
20260906001539 95 143 0.0 0.0 0.00 0.00 0.00 47 1012.0
20260906001039 96 143 0.0 0.0 0.00 0.00 0.00 45 1012.0
20260906000535 96 143 0.0 0.0 0.00 0.00 0.00 43 1012.1
20260906000030 96 143 0.0 0.0 0.00 0.00 0.00 42 1012.1
20260905235529 96 143 0.0 0.0 0.00 0.00 0.00 42 1012.2
20260905235025 97 144 0.0 0.0 0.00 0.00 0.00 42 1012.1
20260905234521 97 146 0.0 0.0 0.00 0.00 0.00 41 1011.9
20260905234021 97 148 0.0 1.0 0.00 0.00 0.00 41 1012.1
20260905233515 97 159 0.0 0.0 0.00 0.00 0.00 41 1012.4
20260905233015 98 140 1.0 1.0 0.00 0.00 0.00 40 1012.2
20260905232510 99 137 2.0 2.0 0.00 0.00 0.00 39 1012.1
20260905232006 99 144 0.0 0.0 0.00 0.00 0.00 37 1011.9
20260905231501 100 160 0.0 0.0 0.00 0.00 0.00 38 1012.0
20260905230958 100 195 0.0 1.0 0.00 0.00 0.00 38 1012.0
20260905230456 100 145 1.0 1.0 0.00 0.00 0.00 36 1011.9
20260905225954 100 149 0.0 1.0 0.00 0.00 0.00 38 1011.8
20260905225449 100 166 0.0 0.0 0.00 0.00 0.00 37 1011.9
20260905224945 100 258 1.0 1.0 0.00 0.00 0.00 37 1011.8
20260905224440 100 171 0.0 0.0 0.00 0.00 0.00 37 1011.9
20260905223939 99 180 0.0 0.0 0.00 0.00 0.00 38 1011.7
20260905223437 98 75 2.0 2.0 0.00 0.00 0.00 38 1011.7
20260905222932 98 79 2.0 2.0 0.00 0.00 0.00 41 1011.7
20260905222432 99 114 2.0 3.0 0.00 0.00 0.00 38 1011.7
20260905221927 100 148 1.0 2.0 0.00 0.00 0.00 37 1011.8
20260905221424 100 70 2.0 3.0 0.00 0.00 0.00 37 1011.9
20260905220920 100 64 3.0 3.0 0.00 0.00 0.00 37 1011.9
20260905220416 100 54 2.0 2.0 0.00 0.00 0.00 36 1011.9
20260905215915 100 155 0.0 1.0 0.00 0.00 0.00 36 1012.0
20260905215410 100 52 4.0 6.0 0.00 0.00 0.00 36 1012.0
20260905214907 100 66 2.0 2.0 0.00 0.00 0.00 37 1011.9
20260905214402 99 12 2.0 2.0 0.00 0.00 0.00 37 1011.9
20260905213857 100 338 2.0 3.0 0.00 0.00 0.00 37 1011.9
20260905213353 100 80 4.0 6.0 0.00 0.00 0.00 37 1011.9
20260905212853 101 145 2.0 3.0 0.00 0.00 0.00 35 1012.2
20260905212348 101 60 2.0 2.0 0.00 0.00 0.00 36 1012.4
20260905211847 101 100 1.0 1.0 0.00 0.00 0.00 36 1012.2
20260905211343 101 342 2.0 4.0 0.00 0.00 0.00 35 1012.3
20260905210840 102 308 3.0 4.0 0.00 0.00 0.00 36 1012.4
20260905210340 101 209 1.0 2.0 0.00 0.00 0.00 36 1012.7
20260905205838 101 20 2.0 3.0 0.00 0.00 0.00 36 1012.6
20260905205333 102 9 3.0 4.0 0.00 0.00 0.00 36 1012.7
20260905204832 102 344 4.0 4.0 0.00 0.00 0.00 33 1012.8
20260905204329 101 135 0.0 1.0 0.00 0.00 0.00 36 1012.7
20260905203827 102 74 4.0 6.0 0.00 0.00 0.00 35 1012.8
20260905203323 102 330 5.0 6.0 0.00 0.00 0.00 35 1013.1
20260905202819 101 42 4.0 6.0 0.00 0.00 0.00 36 1012.9
20260905202314 102 68 5.0 7.0 0.00 0.00 0.00 36 1013.2
20260905201809 102 19 2.0 3.0 0.00 0.00 0.00 37 1012.9
20260905201305 102 296 5.0 9.0 0.00 0.00 0.00 36 1013.0
20260905200805 102 280 1.0 2.0 0.00 0.00 0.00 38 1013.0
20260905200301 102 297 3.0 3.0 0.00 0.00 0.00 37 1013.1
20260905195758 102 301 3.0 3.0 0.00 0.00 0.00 37 1013.2
20260905195253 102 13 2.0 4.0 0.00 0.00 0.00 37 1013.1
20260905194750 102 170 0.0 1.0 0.00 0.00 0.00 36 1013.4
20260905194249 102 65 3.0 4.0 0.00 0.00 0.00 37 1013.3
20260905193748 101 86 3.0 3.0 0.00 0.00 0.00 39 1013.3
20260905193243 100 6 2.0 3.0 0.00 0.00 0.00 38 1013.5
20260905192739 100 37 3.0 3.0 0.00 0.00 0.00 38 1013.3
20260905192235 101 307 5.0 7.0 0.00 0.00 0.00 37 1013.4
20260905191734 100 21 3.0 4.0 0.00 0.00 0.00 38 1013.5
20260905191232 100 150 1.0 2.0 0.00 0.00 0.00 39 1013.5
20260905190732 100 133 2.0 2.0 0.00 0.00 0.00 38 1013.5
20260905190231 100 33 4.0 6.0 0.00 0.00 0.00 37 1013.9
20260905185730 100 245 3.0 4.0 0.00 0.00 0.00 39 1013.8
20260905185225 100 232 2.0 2.0 0.00 0.00 0.00 39 1013.6
20260905184719 100 330 1.0 3.0 0.00 0.00 0.00 38 1013.7
20260905184218 100 282 2.0 3.0 0.00 0.00 0.00 38 1013.9
20260905183718 100 36 2.0 2.0 0.00 0.00 0.00 38 1014.0
20260905183213 100 285 5.0 8.0 0.00 0.00 0.00 39 1013.9
20260905182713 99 263 3.0 3.0 0.00 0.00 0.00 38 1014.1
20260905182212 99 203 0.0 0.0 0.00 0.00 0.00 41 1014.1
20260905181708 100 282 4.0 6.0 0.00 0.00 0.00 38 1014.0
20260905181207 100 246 2.0 2.0 0.00 0.00 0.00 37 1014.0
20260905180701 99 141 3.0 3.0 0.00 0.00 0.00 39 1014.0
20260905180157 98 164 3.0 3.0 0.00 0.00 0.00 39 1014.1
20260905175656 99 232 3.0 4.0 0.00 0.00 0.00 40 1014.2
20260905175151 99 172 0.0 0.0 0.00 0.00 0.00 42 1014.2
20260905174647 98 153 2.0 2.0 0.00 0.00 0.00 39 1014.3
20260905174142 99 182 3.0 3.0 0.00 0.00 0.00 39 1014.4
20260905173638 99 222 1.0 2.0 0.00 0.00 0.00 40 1014.7
20260905173134 100 165 1.0 1.0 0.00 0.00 0.00 41 1014.7
20260905172632 100 273 2.0 3.0 0.00 0.00 0.00 39 1014.9
20260905172127 99 278 3.0 4.0 0.00 0.00 0.00 39 1014.9
20260905171624 98 250 2.0 3.0 0.00 0.00 0.00 39 1015.0
20260905171120 98 219 1.0 2.0 0.00 0.00 0.00 39 1015.1
20260905170616 98 269 2.0 3.0 0.00 0.00 0.00 39 1015.2
20260905170112 98 33 4.0 7.0 0.00 0.00 0.00 40 1015.4
20260905165611 98 36 1.0 2.0 0.00 0.00 0.00 40 1015.4
20260905165107 97 200 1.0 2.0 0.00 0.00 0.00 41 1015.3
20260905164602 98 263 3.0 6.0 0.00 0.00 0.00 41 1015.4
20260905164101 97 233 1.0 2.0 0.00 0.00 0.00 42 1015.3
20260905163558 98 279 5.0 6.0 0.00 0.00 0.00 40 1015.3
20260905163054 98 253 1.0 2.0 0.00 0.00 0.00 41 1015.3
20260905162550 98 279 4.0 4.0 0.00 0.00 0.00 41 1015.4